Auburn, AL

11:43 AM CST on February 22, 2017 (GMT -0600)
Auburn-opelika-pitts

Weather History for KAUO - November, 2014

Change the Weather History Date:

Saturday, November 15, 2014

  Actual Average Record
Temperature  
Mean Temperature 40 °F -  
Max Temperature 52 °F - 83 °F (1978)
Min Temperature 27 °F - 19 °F (1969)
Degree Days  
Heating Degree Days 25    
Month to date heating degree days 218  
Since 1 July heating degree days 313  
Moisture  
Dew Point 21 °F    
Average Humidity 48    
Maximum Humidity 69    
Minimum Humidity 35    
Precipitation  
Precipitation 0.00 in - 2.12 in (2006)
Month to date precipitation 0.01  
Year to date precipitation 34.32  
Sea Level Pressure  
Sea Level Pressure 30.30 in    
Wind  
Wind Speed 7 mph (East)    
Max Wind Speed 10 mph    
Max Gust Speed 18 mph    
Visibility 10 miles    
Events      
T = Trace of Precipitation, MM = Missing Value Source: NWS Daily Summary

Daily Weather History Graph

Daily Weather History Graph

Search for Another Location

Airport or City:

Trip Planner

Search our weather history database for the weather conditions in past years. The results will help you decide how hot, cold, wet, or windy it might be!

Date:

Astronomy

Nov. 15, 2014 Rise Set
Actual Time 6:11 AM CST 4:40 PM CST
Civil Twilight 5:45 AM CST 5:06 PM CST
Nautical Twilight 5:15 AM CST 5:36 PM CST
Astronomical Twilight 4:46 AM CST 6:05 PM CST
Moon No Moon Rise 12:43 PM CST (11/15)
Length of Visible Light 11h 21m
Length of Day
10h 29m
Last Quarter, 40% of the Moon is Illuminated
Nov 15
Last Quarter
Nov 22
New
Nov 29
First Quarter
Dec 6
Full
Dec 14
Last Quarter

Hourly Weather History & Observations

Time (CST) Temp. Windchill Dew Point Humidity Pressure Visibility Wind Dir Wind Speed Gust Speed Precip Events Conditions
12:15 AM 28.4 °F 20.4 °F 12.2 °F 51% 30.28 in 10.0 mi North 8.1 mph - N/A   Clear
12:35 AM 28.4 °F 19.7 °F 12.2 °F 51% 30.28 in 10.0 mi NNE 9.2 mph - N/A   Clear
12:55 AM 28.4 °F 19.7 °F 12.2 °F 51% 30.28 in 10.0 mi NNE 9.2 mph - N/A   Clear
1:15 AM 28.4 °F 19.7 °F 12.2 °F 51% 30.28 in 10.0 mi NNE 9.2 mph - N/A   Clear
1:35 AM 28.4 °F 19.7 °F 12.2 °F 51% 30.27 in 10.0 mi NNE 9.2 mph - N/A   Clear
1:55 AM 28.4 °F 21.2 °F 14.0 °F 55% 30.28 in 10.0 mi NNE 6.9 mph - N/A   Clear
2:15 AM 28.4 °F 20.4 °F 14.0 °F 55% 30.28 in 10.0 mi NNE 8.1 mph - N/A   Clear
2:35 AM 26.6 °F 19.1 °F 14.0 °F 59% 30.28 in 10.0 mi NNE 6.9 mph - N/A   Clear
2:55 AM 26.6 °F 18.2 °F 15.8 °F 64% 30.28 in 10.0 mi NNE 8.1 mph - N/A   Clear
3:15 AM 28.4 °F 19.1 °F 14.0 °F 55% 30.29 in 10.0 mi NE 10.4 mph - N/A   Clear
3:35 AM 28.4 °F 19.7 °F 14.0 °F 55% 30.28 in 10.0 mi NE 9.2 mph - N/A   Clear
3:55 AM 28.4 °F 19.1 °F 14.0 °F 55% 30.29 in 10.0 mi ENE 10.4 mph - N/A   Clear
4:15 AM 28.4 °F 19.1 °F 14.0 °F 55% 30.30 in 10.0 mi NE 10.4 mph - N/A   Clear
4:35 AM 28.4 °F 20.4 °F 14.0 °F 55% 30.31 in 10.0 mi NE 8.1 mph - N/A   Clear
4:55 AM 28.4 °F 21.2 °F 14.0 °F 55% 30.31 in 10.0 mi NE 6.9 mph - N/A   Clear
5:15 AM 26.6 °F 19.1 °F 15.8 °F 64% 30.31 in 10.0 mi ENE 6.9 mph - N/A   Clear
5:35 AM 26.6 °F 17.5 °F 15.8 °F 64% 30.32 in 10.0 mi ENE 9.2 mph - N/A   Clear
5:55 AM 26.6 °F 19.1 °F 15.8 °F 64% 30.33 in 10.0 mi ENE 6.9 mph - N/A   Clear
6:15 AM 26.6 °F 20.0 °F 15.8 °F 64% 30.33 in 10.0 mi ENE 5.8 mph - N/A   Clear
6:35 AM 28.4 °F 20.4 °F 17.6 °F 64% 30.35 in 10.0 mi ENE 8.1 mph - N/A   Clear
6:55 AM 28.4 °F 19.7 °F 19.4 °F 69% 30.35 in 10.0 mi East 9.2 mph - N/A   Clear
7:15 AM 30.2 °F 21.9 °F 19.4 °F 64% 30.36 in 10.0 mi East 9.2 mph - N/A   Clear
7:35 AM 30.2 °F 21.9 °F 19.4 °F 64% 30.37 in 10.0 mi East 9.2 mph - N/A   Clear
7:55 AM 33.8 °F 25.8 °F 21.2 °F 60% 30.37 in 10.0 mi East 10.4 mph - N/A   Clear
8:15 AM 35.6 °F 27.1 °F 19.4 °F 52% 30.38 in 10.0 mi East 12.7 mph 18.4 mph N/A   Clear
8:35 AM 37.4 °F 28.9 °F 19.4 °F 48% 30.38 in 10.0 mi East 13.8 mph - N/A   Clear
8:55 AM 39.2 °F 33.0 °F 21.2 °F 49% 30.38 in 10.0 mi East 9.2 mph - N/A   Clear
9:15 AM 39.2 °F 32.0 °F 21.2 °F 49% 30.38 in 10.0 mi East 11.5 mph 16.1 mph N/A   Clear
9:35 AM 41.0 °F 35.2 °F 21.2 °F 45% 30.38 in 10.0 mi East 9.2 mph - N/A   Clear
9:55 AM 42.8 °F 37.5 °F 21.2 °F 42% 30.38 in 10.0 mi ESE 9.2 mph - N/A   Clear
10:15 AM 44.6 °F 40.2 °F 23.0 °F 43% 30.38 in 10.0 mi ESE 8.1 mph 16.1 mph N/A   Clear
10:35 AM 44.6 °F 39.7 °F 24.8 °F 46% 30.37 in 10.0 mi East 9.2 mph - N/A   Clear
10:55 AM 46.4 °F 42.9 °F 24.8 °F 43% 30.36 in 10.0 mi East 6.9 mph - N/A   Clear
11:15 AM 46.4 °F 42.9 °F 24.8 °F 43% 30.35 in 10.0 mi ESE 6.9 mph - N/A   Clear
11:35 AM 46.4 °F 44.3 °F 24.8 °F 43% 30.34 in 10.0 mi ESE 4.6 mph - N/A   Clear
11:55 AM 48.2 °F - 24.8 °F 40% 30.33 in 10.0 mi South 8.1 mph - N/A   Clear
12:15 PM 48.2 °F - 24.8 °F 40% 30.31 in 10.0 mi ESE 3.5 mph - N/A   Clear
12:35 PM 48.2 °F - 24.8 °F 40% 30.31 in 10.0 mi SSE 5.8 mph - N/A   Clear
12:55 PM 48.2 °F - 26.6 °F 43% 30.29 in 10.0 mi ESE 4.6 mph - N/A   Clear
1:15 PM 48.2 °F - 24.8 °F 40% 30.29 in 10.0 mi SSE 3.5 mph - N/A   Clear
1:35 PM 50.0 °F - 24.8 °F 37% 30.28 in 10.0 mi East 4.6 mph - N/A   Clear
1:55 PM 51.8 °F - 26.6 °F 38% 30.28 in 10.0 mi SE 5.8 mph - N/A   Clear
2:15 PM 51.8 °F - 24.8 °F 35% 30.27 in 10.0 mi SE 5.8 mph - N/A   Clear
2:35 PM 51.8 °F - 24.8 °F 35% 30.26 in 10.0 mi ESE 8.1 mph - N/A   Clear
2:55 PM 51.8 °F - 24.8 °F 35% 30.27 in 10.0 mi ESE 4.6 mph - N/A   Clear
3:15 PM 51.8 °F - 24.8 °F 35% 30.28 in 10.0 mi ESE 5.8 mph - N/A   Clear
3:35 PM 50.0 °F - 24.8 °F 37% 30.27 in 10.0 mi East 5.8 mph - N/A   Clear
3:55 PM 50.0 °F - 24.8 °F 37% 30.28 in 10.0 mi ESE 5.8 mph - N/A   Clear
4:15 PM 48.2 °F - 24.8 °F 40% 30.28 in 10.0 mi SE 4.6 mph - N/A   Clear
4:35 PM 48.2 °F - 24.8 °F 40% 30.28 in 10.0 mi ESE 3.5 mph - N/A   Clear
4:55 PM 46.4 °F 45.2 °F 24.8 °F 43% 30.28 in 10.0 mi East 3.5 mph - N/A   Clear
5:15 PM 46.4 °F 44.3 °F 24.8 °F 43% 30.27 in 10.0 mi East 4.6 mph - N/A   Clear
5:35 PM 46.4 °F 43.5 °F 24.8 °F 43% 30.27 in 10.0 mi East 5.8 mph - N/A   Clear
5:55 PM 44.6 °F 42.2 °F 24.8 °F 46% 30.27 in 10.0 mi ESE 4.6 mph - N/A   Clear
6:15 PM 44.6 °F 43.1 °F 24.8 °F 46% 30.27 in 10.0 mi ESE 3.5 mph - N/A   Clear
6:35 PM 44.6 °F 43.1 °F 24.8 °F 46% 30.28 in 10.0 mi ESE 3.5 mph - N/A   Clear
6:55 PM 44.6 °F 42.2 °F 24.8 °F 46% 30.28 in 10.0 mi ESE 4.6 mph - N/A   Clear
7:15 PM 42.8 °F 40.1 °F 24.8 °F 49% 30.28 in 10.0 mi East 4.6 mph - N/A   Clear
7:35 PM 44.6 °F 42.2 °F 24.8 °F 46% 30.28 in 10.0 mi ESE 4.6 mph - N/A   Clear
7:55 PM 42.8 °F 40.1 °F 24.8 °F 49% 30.28 in 10.0 mi ESE 4.6 mph - N/A   Clear
8:15 PM 42.8 °F 39.3 °F 24.8 °F 49% 30.28 in 10.0 mi ESE 5.8 mph - N/A   Clear
8:35 PM 42.8 °F 39.3 °F 24.8 °F 49% 30.29 in 10.0 mi ESE 5.8 mph - N/A   Clear
8:55 PM 42.8 °F 39.3 °F 24.8 °F 49% 30.30 in 10.0 mi East 5.8 mph - N/A   Clear
9:15 PM 42.8 °F 39.3 °F 24.8 °F 49% 30.29 in 10.0 mi East 5.8 mph - N/A   Clear
9:35 PM 42.8 °F 38.6 °F 24.8 °F 49% 30.30 in 10.0 mi East 6.9 mph - N/A   Partly Cloudy
9:55 PM 41.0 °F 37.1 °F 24.8 °F 53% 30.30 in 10.0 mi East 5.8 mph - N/A   Partly Cloudy
10:15 PM 41.0 °F 35.8 °F 23.0 °F 49% 30.29 in 10.0 mi East 8.1 mph - N/A   Clear
10:35 PM 42.8 °F 38.0 °F 23.0 °F 46% 30.29 in 10.0 mi East 8.1 mph - N/A   Clear
10:55 PM 42.8 °F 37.5 °F 21.2 °F 42% 30.28 in 10.0 mi East 9.2 mph - N/A   Clear
11:15 PM 42.8 °F 38.6 °F 21.2 °F 42% 30.27 in 10.0 mi East 6.9 mph - N/A   Clear
11:35 PM 42.8 °F 38.6 °F 21.2 °F 42% 30.27 in 10.0 mi ESE 6.9 mph - N/A   Clear
11:55 PM 42.8 °F 38.6 °F 23.0 °F 46% 30.27 in 10.0 mi East 6.9 mph - N/A   Clear